Time,TemperatureF,DewpointF,PressureIn,WindDirection,WindDirectionDegrees,WindSpeedMPH,WindSpeedGustMPH,Humidity,HourlyPrecipIn,Conditions,Clouds,dailyrainin,SoftwareType,DateUTC
2013-09-20 00:02:00,53.0,45.0,29.87,WSW,250,0.0,-999.0,75,-99.99,,,0.00,weatherlink.com 1.10,2013-09-19 23:02:00,
2013-09-20 00:17:00,52.8,45.0,29.88,West,271,0.0,-999.0,75,-99.99,,,0.00,weatherlink.com 1.10,2013-09-19 23:17:00,
2013-09-20 00:32:00,52.5,45.0,29.89,WNW,293,0.0,-999.0,75,-99.99,,,0.00,weatherlink.com 1.10,2013-09-19 23:32:00,
2013-09-20 00:47:00,52.2,45.0,29.89,WSW,258,0.0,-999.0,75,-99.99,,,0.00,weatherlink.com 1.10,2013-09-19 23:47:00,
2013-09-20 01:02:00,51.8,44.0,29.89,WNW,291,0.0,-999.0,76,-99.99,,,0.00,weatherlink.com 1.10,2013-09-20 00:02:00,
2013-09-20 01:17:00,51.5,44.0,29.90,West,269,0.0,-999.0,76,-99.99,,,0.00,weatherlink.com 1.10,2013-09-20 00:17:00,
2013-09-20 01:32:00,51.4,44.0,29.90,West,281,0.0,-999.0,77,-99.99,,,0.00,weatherlink.com 1.10,2013-09-20 00:32:00,
2013-09-20 01:47:00,51.6,44.0,29.91,West,259,0.0,-999.0,76,-99.99,,,0.00,weatherlink.com 1.10,2013-09-20 00:47:00,
2013-09-20 02:02:00,51.7,45.0,29.91,WNW,286,0.0,-999.0,77,-99.99,,,0.00,weatherlink.com 1.10,2013-09-20 01:02:00,
2013-09-20 02:17:00,52.1,45.0,29.93,WSW,246,0.0,-999.0,77,-99.99,,,0.00,weatherlink.com 1.10,2013-09-20 01:17:00,
2013-09-20 02:32:00,52.5,45.0,29.93,WSW,258,0.0,-999.0,76,-99.99,,,0.00,weatherlink.com 1.10,2013-09-20 01:32:00,
2013-09-20 02:47:00,52.7,45.0,29.93,West,277,0.0,-999.0,76,-99.99,,,0.00,weatherlink.com 1.10,2013-09-20 01:47:00,
2013-09-20 03:02:00,52.8,45.0,29.93,West,265,0.0,-999.0,76,-99.99,,,0.00,weatherlink.com 1.10,2013-09-20 02:02:00,
2013-09-20 03:17:00,53.0,46.0,29.94,WSW,255,0.0,-999.0,76,-99.99,,,0.00,weatherlink.com 1.10,2013-09-20 02:17:00,
2013-09-20 03:32:00,53.1,45.0,29.94,WNW,292,0.0,-999.0,75,-99.99,,,0.00,weatherlink.com 1.10,2013-09-20 02:32:00,
2013-09-20 03:47:00,53.1,46.0,29.94,West,262,0.0,-999.0,76,-99.99,,,0.00,weatherlink.com 1.10,2013-09-20 02:47:00,
2013-09-20 04:02:00,53.1,46.0,29.95,WSW,257,0.0,-999.0,76,-99.99,,,0.00,weatherlink.com 1.10,2013-09-20 03:02:00,
2013-09-20 04:17:00,53.1,46.0,29.94,WSW,257,0.0,-999.0,76,-99.99,,,0.00,weatherlink.com 1.10,2013-09-20 03:17:00,
2013-09-20 04:32:00,52.9,46.0,29.94,West,266,0.0,-999.0,76,-99.99,,,0.00,weatherlink.com 1.10,2013-09-20 03:32:00,
2013-09-20 04:47:00,52.9,46.0,29.95,West,259,0.0,-999.0,76,-99.99,,,0.00,weatherlink.com 1.10,2013-09-20 03:47:00,
2013-09-20 05:02:00,52.9,46.0,29.95,West,269,0.0,-999.0,76,-99.99,,,0.00,weatherlink.com 1.10,2013-09-20 04:02:00,
2013-09-20 05:17:00,52.8,45.0,29.95,West,259,0.0,-999.0,76,-99.99,,,0.00,weatherlink.com 1.10,2013-09-20 04:17:00,
2013-09-20 05:32:00,52.8,45.0,29.95,West,267,0.0,-999.0,76,-99.99,,,0.00,weatherlink.com 1.10,2013-09-20 04:32:00,
2013-09-20 05:47:00,52.9,46.0,29.95,West,279,0.0,-999.0,76,-99.99,,,0.00,weatherlink.com 1.10,2013-09-20 04:47:00,
2013-09-20 06:02:00,52.9,46.0,29.95,West,277,0.0,-999.0,76,-99.99,,,0.00,weatherlink.com 1.10,2013-09-20 05:02:00,
2013-09-20 06:18:00,52.9,46.0,29.96,West,277,0.0,-999.0,76,-99.99,,,0.00,weatherlink.com 1.10,2013-09-20 05:18:00,
2013-09-20 06:33:00,52.9,46.0,29.97,West,277,0.0,-999.0,76,-99.99,,,0.00,weatherlink.com 1.10,2013-09-20 05:33:00,
2013-09-20 06:48:00,52.9,46.0,29.97,West,277,0.0,-999.0,76,-99.99,,,0.00,weatherlink.com 1.10,2013-09-20 05:48:00,
2013-09-20 07:03:00,53.0,46.0,29.97,West,277,0.0,-999.0,76,-99.99,,,0.00,weatherlink.com 1.10,2013-09-20 06:03:00,
2013-09-20 07:18:00,53.0,45.0,29.97,West,277,0.0,-999.0,75,-99.99,,,0.00,weatherlink.com 1.10,2013-09-20 06:18:00,
2013-09-20 07:33:00,53.0,45.0,29.97,West,277,0.0,-999.0,75,-99.99,,,0.00,weatherlink.com 1.10,2013-09-20 06:33:00,
2013-09-20 07:48:00,53.1,45.0,29.98,West,277,0.0,-999.0,75,-99.99,,,0.00,weatherlink.com 1.10,2013-09-20 06:48:00,
2013-09-20 08:03:00,53.1,46.0,29.98,West,277,0.0,-999.0,76,-99.99,,,0.00,weatherlink.com 1.10,2013-09-20 07:03:00,
2013-09-20 08:18:00,53.2,46.0,29.98,SW,218,0.0,-999.0,76,-99.99,,,0.00,weatherlink.com 1.10,2013-09-20 07:18:00,
2013-09-20 08:33:00,53.6,46.0,29.98,SW,236,0.0,-999.0,74,-99.99,,,0.00,weatherlink.com 1.10,2013-09-20 07:33:00,
2013-09-20 08:48:00,54.2,46.0,29.98,WSW,254,0.0,-999.0,73,-99.99,,,0.00,weatherlink.com 1.10,2013-09-20 07:48:00,
2013-09-20 09:03:00,54.6,46.0,29.98,WSW,247,0.0,-999.0,72,-99.99,,,0.00,weatherlink.com 1.10,2013-09-20 08:03:00,
2013-09-20 09:18:00,55.1,47.0,29.98,SW,232,0.0,-999.0,73,-99.99,,,0.00,weatherlink.com 1.10,2013-09-20 08:18:00,
2013-09-20 09:33:00,55.4,46.0,29.99,SW,223,0.0,-999.0,72,-99.99,,,0.00,weatherlink.com 1.10,2013-09-20 08:33:00,
2013-09-20 09:48:00,55.7,47.0,29.99,SW,227,0.0,-999.0,72,-99.99,,,0.00,weatherlink.com 1.10,2013-09-20 08:48:00,
2013-09-20 10:03:00,56.1,46.0,29.99,WSW,253,0.0,-999.0,70,-99.99,,,0.00,weatherlink.com 1.10,2013-09-20 09:03:00,
2013-09-20 10:18:00,56.5,47.0,29.99,WSW,238,0.0,-999.0,70,-99.99,,,0.00,weatherlink.com 1.10,2013-09-20 09:18:00,
2013-09-20 10:33:00,56.8,47.0,30.00,SW,230,0.0,-999.0,70,-99.99,,,0.00,weatherlink.com 1.10,2013-09-20 09:33:00,
2013-09-20 10:48:00,57.6,46.0,30.00,SW,232,0.0,-999.0,66,-99.99,,,0.00,weatherlink.com 1.10,2013-09-20 09:48:00,
2013-09-20 11:03:00,57.9,46.0,30.00,West,275,0.0,-999.0,64,-99.99,,,0.00,weatherlink.com 1.10,2013-09-20 10:03:00,
2013-09-20 11:18:00,57.8,46.0,30.01,WSW,249,0.0,-999.0,65,-99.99,,,0.00,weatherlink.com 1.10,2013-09-20 10:18:00,
2013-09-20 11:33:00,58.0,46.0,30.01,WSW,240,0.0,-999.0,65,-99.99,,,0.00,weatherlink.com 1.10,2013-09-20 10:33:00,
2013-09-20 11:48:00,58.1,46.0,30.01,WSW,244,0.0,-999.0,64,-99.99,,,0.00,weatherlink.com 1.10,2013-09-20 10:48:00,
2013-09-20 12:03:00,58.2,45.0,30.01,WSW,240,0.0,-999.0,63,-99.99,,,0.00,weatherlink.com 1.10,2013-09-20 11:03:00,
2013-09-20 12:18:00,58.1,47.0,30.01,WSW,249,0.0,-999.0,66,-99.99,,,0.00,weatherlink.com 1.10,2013-09-20 11:18:00,
2013-09-20 12:33:00,58.2,46.0,30.01,WSW,246,0.0,-999.0,65,-99.99,,,0.00,weatherlink.com 1.10,2013-09-20 11:33:00,
2013-09-20 12:48:00,58.4,46.0,30.01,WSW,258,0.0,-999.0,64,-99.99,,,0.00,weatherlink.com 1.10,2013-09-20 11:48:00,
2013-09-20 13:03:00,58.5,46.0,30.01,WSW,254,0.0,-999.0,64,-99.99,,,0.00,weatherlink.com 1.10,2013-09-20 12:03:00,
2013-09-20 13:18:00,58.7,46.0,30.02,SSW,208,0.0,-999.0,62,-99.99,,,0.00,weatherlink.com 1.10,2013-09-20 12:18:00,
2013-09-20 13:33:00,58.8,47.0,30.02,WSW,253,0.0,-999.0,64,-99.99,,,0.00,weatherlink.com 1.10,2013-09-20 12:33:00,
2013-09-20 13:48:00,58.7,46.0,30.02,WSW,257,0.0,-999.0,62,-99.99,,,0.00,weatherlink.com 1.10,2013-09-20 12:48:00,
2013-09-20 14:03:00,58.9,46.0,30.02,WSW,250,0.0,-999.0,63,-99.99,,,0.00,weatherlink.com 1.10,2013-09-20 13:03:00,
2013-09-20 14:18:00,59.6,47.0,30.02,WSW,237,0.0,-999.0,63,-99.99,,,0.00,weatherlink.com 1.10,2013-09-20 13:18:00,
2013-09-20 14:33:00,60.3,47.0,30.01,SSW,209,0.0,-999.0,61,-99.99,,,0.00,weatherlink.com 1.10,2013-09-20 13:33:00,
2013-09-20 14:48:00,60.9,47.0,30.01,SW,227,0.0,-999.0,60,-99.99,,,0.00,weatherlink.com 1.10,2013-09-20 13:48:00,
2013-09-20 15:03:00,61.7,47.0,30.01,SW,228,0.0,-999.0,58,-99.99,,,0.00,weatherlink.com 1.10,2013-09-20 14:03:00,
2013-09-20 15:18:00,61.9,47.0,30.01,South,179,0.0,-999.0,59,-99.99,,,0.00,weatherlink.com 1.10,2013-09-20 14:18:00,
2013-09-20 15:33:00,61.8,47.0,30.01,WSW,245,0.0,-999.0,59,-99.99,,,0.00,weatherlink.com 1.10,2013-09-20 14:33:00,
2013-09-20 15:48:00,61.9,47.0,30.01,SW,234,0.0,-999.0,58,-99.99,,,0.00,weatherlink.com 1.10,2013-09-20 14:48:00,
2013-09-20 16:03:00,62.3,46.0,30.01,WSW,258,0.0,-999.0,56,-99.99,,,0.00,weatherlink.com 1.10,2013-09-20 15:03:00,
2013-09-20 16:18:00,62.4,47.0,30.01,WSW,248,0.0,-999.0,57,-99.99,,,0.00,weatherlink.com 1.10,2013-09-20 15:18:00,
2013-09-20 16:33:00,62.4,47.0,30.01,WSW,240,0.0,-999.0,58,-99.99,,,0.00,weatherlink.com 1.10,2013-09-20 15:33:00,
2013-09-20 16:48:00,62.6,47.0,30.01,West,261,0.0,-999.0,57,-99.99,,,0.00,weatherlink.com 1.10,2013-09-20 15:48:00,
2013-09-20 17:03:00,62.6,47.0,30.01,WSW,252,0.0,-999.0,58,-99.99,,,0.00,weatherlink.com 1.10,2013-09-20 16:03:00,
2013-09-20 17:18:00,62.4,47.0,30.01,WSW,257,0.0,-999.0,57,-99.99,,,0.00,weatherlink.com 1.10,2013-09-20 16:18:00,
2013-09-20 17:33:00,61.9,47.0,30.01,WSW,257,0.0,-999.0,59,-99.99,,,0.00,weatherlink.com 1.10,2013-09-20 16:33:00,
2013-09-20 17:48:00,62.1,47.0,30.01,WSW,257,0.0,-999.0,59,-99.99,,,0.00,weatherlink.com 1.10,2013-09-20 16:48:00,
2013-09-20 18:03:00,61.8,47.0,30.00,WSW,240,0.0,-999.0,59,-99.99,,,0.00,weatherlink.com 1.10,2013-09-20 17:03:00,
2013-09-20 18:18:00,61.2,47.0,30.00,WSW,242,0.0,-999.0,60,-99.99,,,0.00,weatherlink.com 1.10,2013-09-20 17:18:00,
2013-09-20 18:33:00,61.0,47.0,30.00,WSW,250,0.0,-999.0,61,-99.99,,,0.00,weatherlink.com 1.10,2013-09-20 17:33:00,
2013-09-20 18:48:00,60.7,47.0,30.00,WSW,247,0.0,-999.0,62,-99.99,,,0.00,weatherlink.com 1.10,2013-09-20 17:48:00,
2013-09-20 19:03:00,60.4,47.0,30.00,West,267,0.0,-999.0,62,-99.99,,,0.00,weatherlink.com 1.10,2013-09-20 18:03:00,
2013-09-20 19:18:00,60.2,47.0,30.00,WSW,239,0.0,-999.0,63,-99.99,,,0.00,weatherlink.com 1.10,2013-09-20 18:18:00,
2013-09-20 19:33:00,59.8,48.0,30.01,WSW,241,0.0,-999.0,65,-99.99,,,0.00,weatherlink.com 1.10,2013-09-20 18:33:00,
2013-09-20 19:48:00,59.4,48.0,30.00,SW,227,0.0,-999.0,66,-99.99,,,0.00,weatherlink.com 1.10,2013-09-20 18:48:00,
2013-09-20 20:18:00,58.6,48.0,30.01,SW,220,0.0,-999.0,67,-99.99,,,0.00,weatherlink.com 1.10,2013-09-20 19:18:00,
2013-09-20 20:33:00,58.1,48.0,30.01,SW,220,0.0,-999.0,68,-99.99,,,0.00,weatherlink.com 1.10,2013-09-20 19:33:00,
2013-09-20 20:49:00,57.6,48.0,30.01,SW,220,0.0,-999.0,70,-99.99,,,0.00,weatherlink.com 1.10,2013-09-20 19:49:00,
2013-09-20 21:04:00,57.5,48.0,30.01,SW,225,0.0,-999.0,70,-99.99,,,0.00,weatherlink.com 1.10,2013-09-20 20:04:00,
2013-09-20 21:19:00,57.2,48.0,30.01,WSW,250,0.0,-999.0,72,-99.99,,,0.00,weatherlink.com 1.10,2013-09-20 20:19:00,
2013-09-20 21:34:00,57.1,48.0,30.01,WSW,250,0.0,-999.0,72,-99.99,,,0.00,weatherlink.com 1.10,2013-09-20 20:34:00,
2013-09-20 21:49:00,56.8,48.0,30.02,WSW,250,0.0,-999.0,73,-99.99,,,0.00,weatherlink.com 1.10,2013-09-20 20:49:00,
2013-09-20 22:04:00,56.5,48.0,30.02,WSW,250,0.0,-999.0,73,-99.99,,,0.00,weatherlink.com 1.10,2013-09-20 21:04:00,
2013-09-20 22:19:00,56.3,48.0,30.01,WSW,250,0.0,-999.0,74,-99.99,,,0.00,weatherlink.com 1.10,2013-09-20 21:19:00,
2013-09-20 22:34:00,56.1,48.0,30.01,WSW,250,0.0,-999.0,74,-99.99,,,0.00,weatherlink.com 1.10,2013-09-20 21:34:00,
2013-09-20 22:49:00,55.9,48.0,30.00,WSW,250,0.0,-999.0,75,-99.99,,,0.00,weatherlink.com 1.10,2013-09-20 21:49:00,
2013-09-20 23:04:00,55.9,48.0,30.02,WSW,250,0.0,-999.0,75,-99.99,,,0.00,weatherlink.com 1.10,2013-09-20 22:04:00,
2013-09-20 23:34:00,56.0,48.0,30.00,WSW,250,0.0,-999.0,75,-99.99,,,0.00,weatherlink.com 1.10,2013-09-20 22:34:00,
2013-09-20 23:49:00,56.2,48.0,30.01,WSW,250,0.0,-999.0,75,-99.99,,,0.00,weatherlink.com 1.10,2013-09-20 22:49:00,